![](https://secure.gravatar.com/avatar/900f734c10632692418d1b47311b6af5.jpg?s=120&d=mm&r=g)
SB KEPS @ AMSAT $ORB14002.O Orbital Elements 14002.OSCAR
HR AMSAT ORBITAL ELEMENTS FOR OSCAR SATELLITES FROM WA5QGD FORT WORTH,TX January 2, 2014 BID: ORB14002.O TO ALL RADIO AMATEURS BT
Satellite: AO-07 Catalog number: 07530 Epoch time: 14002.22356639 Element set: 862 Inclination: 101.4541 deg RA of node: 349.6494 deg Eccentricity: 0.0011608 Arg of perigee: 259.0869 deg Mean anomaly: 170.4891 deg Mean motion: 12.53600963 rev/day Decay rate: -1.9e-07 rev/day^2 Epoch rev: 79072 Checksum: 303
Satellite: FO-29 Catalog number: 24278 Epoch time: 14002.73746885 Element set: 278 Inclination: 098.5283 deg RA of node: 039.3350 deg Eccentricity: 0.0350413 Arg of perigee: 007.0593 deg Mean anomaly: 107.3231 deg Mean motion: 13.53012796 rev/day Decay rate: -1.6e-07 rev/day^2 Epoch rev: 85829 Checksum: 309
Satellite: SO-33 Catalog number: 25509 Epoch time: 14002.19354684 Element set: 661 Inclination: 031.4328 deg RA of node: 020.7206 deg Eccentricity: 0.0350496 Arg of perigee: 100.4402 deg Mean anomaly: 330.3578 deg Mean motion: 14.29275698 rev/day Decay rate: 2.37e-06 rev/day^2 Epoch rev: 79338 Checksum: 297
Satellite: RS-22 Catalog number: 27939 Epoch time: 14002.60588116 Element set: 92 Inclination: 097.7971 deg RA of node: 185.1125 deg Eccentricity: 0.0012350 Arg of perigee: 276.1929 deg Mean anomaly: 083.7873 deg Mean motion: 14.64781159 rev/day Decay rate: 9.68e-06 rev/day^2 Epoch rev: 54848 Checksum: 341
Satellite: VO-52 Catalog number: 28650 Epoch time: 14002.81515461 Element set: 622 Inclination: 097.5618 deg RA of node: 016.1545 deg Eccentricity: 0.0024982 Arg of perigee: 346.7144 deg Mean anomaly: 064.0440 deg Mean motion: 14.84565905 rev/day Decay rate: 3.524e-05 rev/day^2 Epoch rev: 46869 Checksum: 309
Satellite: HO-68 Catalog number: 36122 Epoch time: 14002.71985676 Element set: 201 Inclination: 100.2778 deg RA of node: 059.4720 deg Eccentricity: 0.0007252 Arg of perigee: 255.2917 deg Mean anomaly: 104.7396 deg Mean motion: 13.16310450 rev/day Decay rate: -4.4e-07 rev/day^2 Epoch rev: 19466 Checksum: 286
Satellite: AO-73 Catalog number: 39445 Epoch time: 14001.86711480 Element set: 26 Inclination: 097.7951 deg RA of node: 078.1426 deg Eccentricity: 0.0064680 Arg of perigee: 062.9633 deg Mean anomaly: 297.8155 deg Mean motion: 14.77310546 rev/day Decay rate: 1.649e-05 rev/day^2 Epoch rev: 447 Checksum: 322
/EX SB KEPS @ AMSAT $ORB14002.D Orbital Elements 14002.MICROS
HR AMSAT ORBITAL ELEMENTS FOR THE MICROSATS FROM WA5QGD FORT WORTH,TX January 2, 2014 BID: ORB14002.D TO ALL RADIO AMATEURS BT
Satellite: UO-11 Catalog number: 14781 Epoch time: 14001.94124678 Element set: 378 Inclination: 097.8766 deg RA of node: 065.1440 deg Eccentricity: 0.0008579 Arg of perigee: 011.9937 deg Mean anomaly: 348.1478 deg Mean motion: 14.81214152 rev/day Decay rate: 7.01e-06 rev/day^2 Epoch rev: 60335 Checksum: 309
Satellite: AO-16 Catalog number: 20439 Epoch time: 14002.20423019 Element set: 921 Inclination: 098.4931 deg RA of node: 302.8070 deg Eccentricity: 0.0009728 Arg of perigee: 291.6361 deg Mean anomaly: 201.2911 deg Mean motion: 14.32259649 rev/day Decay rate: 2.11e-06 rev/day^2 Epoch rev: 25072 Checksum: 264
Satellite: LO-19 Catalog number: 20442 Epoch time: 14002.04823432 Element set: 859 Inclination: 098.4634 deg RA of node: 303.8162 deg Eccentricity: 0.0010671 Arg of perigee: 280.5285 deg Mean anomaly: 079.4696 deg Mean motion: 14.32466113 rev/day Decay rate: 1.99e-06 rev/day^2 Epoch rev: 25089 Checksum: 304
Satellite: AO-27 Catalog number: 22825 Epoch time: 14001.83419395 Element set: 563 Inclination: 098.6438 deg RA of node: 308.9870 deg Eccentricity: 0.0009402 Arg of perigee: 069.9523 deg Mean anomaly: 343.3350 deg Mean motion: 14.29635753 rev/day Decay rate: 1.50e-06 rev/day^2 Epoch rev: 5701 Checksum: 307
Satellite: IO-26 Catalog number: 22826 Epoch time: 14001.86638576 Element set: 320 Inclination: 098.6382 deg RA of node: 309.2671 deg Eccentricity: 0.0009862 Arg of perigee: 063.1355 deg Mean anomaly: 002.6427 deg Mean motion: 14.29927408 rev/day Decay rate: 1.55e-06 rev/day^2 Epoch rev: 5715 Checksum: 306
Satellite: GO-32 Catalog number: 25397 Epoch time: 14001.84679374 Element set: 243 Inclination: 098.4459 deg RA of node: 326.2583 deg Eccentricity: 0.0002402 Arg of perigee: 089.3230 deg Mean anomaly: 330.0845 deg Mean motion: 14.23390091 rev/day Decay rate: 8.1e-07 rev/day^2 Epoch rev: 80420 Checksum: 284
Satellite: NO-44 Catalog number: 26931 Epoch time: 14001.80373287 Element set: 503 Inclination: 067.0525 deg RA of node: 107.4729 deg Eccentricity: 0.0006050 Arg of perigee: 264.9956 deg Mean anomaly: 095.0454 deg Mean motion: 14.30015047 rev/day Decay rate: 1.84e-06 rev/day^2 Epoch rev: 63981 Checksum: 290
Satellite: SO-50 Catalog number: 27607 Epoch time: 14002.50554491 Element set: 262 Inclination: 064.5577 deg RA of node: 017.2140 deg Eccentricity: 0.0032433 Arg of perigee: 076.8037 deg Mean anomaly: 004.2695 deg Mean motion: 14.73308459 rev/day Decay rate: 1.025e-05 rev/day^2 Epoch rev: 59307 Checksum: 283
Satellite: CO-55 Catalog number: 27844 Epoch time: 14002.65309760 Element set: 823 Inclination: 098.7005 deg RA of node: 013.8196 deg Eccentricity: 0.0010107 Arg of perigee: 039.6160 deg Mean anomaly: 076.8411 deg Mean motion: 14.21353440 rev/day Decay rate: 3.38e-06 rev/day^2 Epoch rev: 54506 Checksum: 280
Satellite: CO-57 Catalog number: 27848 Epoch time: 14002.62461369 Element set: 764 Inclination: 098.7096 deg RA of node: 013.4118 deg Eccentricity: 0.0010159 Arg of perigee: 045.5152 deg Mean anomaly: 081.1020 deg Mean motion: 14.21061383 rev/day Decay rate: 2.64e-06 rev/day^2 Epoch rev: 54498 Checksum: 290
Satellite: AO-51 Catalog number: 28375 Epoch time: 14002.45512578 Element set: 738 Inclination: 098.2309 deg RA of node: 315.2116 deg Eccentricity: 0.0084406 Arg of perigee: 132.9803 deg Mean anomaly: 005.5007 deg Mean motion: 14.41240445 rev/day Decay rate: 2.55e-06 rev/day^2 Epoch rev: 50003 Checksum: 267
Satellite: CP3 Catalog number: 31129 Epoch time: 14001.88131137 Element set: 638 Inclination: 097.9169 deg RA of node: 348.5316 deg Eccentricity: 0.0099938 Arg of perigee: 168.2021 deg Mean anomaly: 251.0845 deg Mean motion: 14.54110844 rev/day Decay rate: 7.33e-06 rev/day^2 Epoch rev: 35586 Checksum: 309
Satellite: CO-65 Catalog number: 32785 Epoch time: 14002.12704446 Element set: 831 Inclination: 097.7245 deg RA of node: 058.7488 deg Eccentricity: 0.0014168 Arg of perigee: 020.8602 deg Mean anomaly: 031.5152 deg Mean motion: 14.84517577 rev/day Decay rate: 2.032e-05 rev/day^2 Epoch rev: 30738 Checksum: 298
Satellite: PRISM Catalog number: 33493 Epoch time: 14002.84980338 Element set: 514 Inclination: 098.2339 deg RA of node: 171.8251 deg Eccentricity: 0.0016804 Arg of perigee: 263.9361 deg Mean anomaly: 095.9953 deg Mean motion: 14.87466902 rev/day Decay rate: 4.065e-05 rev/day^2 Epoch rev: 26758 Checksum: 328
Satellite: SOHLA-1 Catalog number: 33496 Epoch time: 14002.86863707 Element set: 239 Inclination: 098.1518 deg RA of node: 123.6299 deg Eccentricity: 0.0007276 Arg of perigee: 056.9278 deg Mean anomaly: 057.6607 deg Mean motion: 14.70523892 rev/day Decay rate: 6.40e-06 rev/day^2 Epoch rev: 26521 Checksum: 323
Satellite: TISAT-1 Catalog number: 36799 Epoch time: 14002.80241734 Element set: 778 Inclination: 098.0254 deg RA of node: 093.6953 deg Eccentricity: 0.0015243 Arg of perigee: 136.1931 deg Mean anomaly: 224.0506 deg Mean motion: 14.84334599 rev/day Decay rate: 2.554e-05 rev/day^2 Epoch rev: 18817 Checksum: 314
Satellite: STUDSAT Catalog number: 36801 Epoch time: 14001.54042801 Element set: 742 Inclination: 098.0390 deg RA of node: 097.7186 deg Eccentricity: 0.0011319 Arg of perigee: 119.5977 deg Mean anomaly: 006.6111 deg Mean motion: 14.91678149 rev/day Decay rate: 1.2334e-04 rev/day^2 Epoch rev: 18824 Checksum: 290
Satellite: ALMASAT-1 Catalog number: 38078 Epoch time: 14002.34298432 Element set: 891 Inclination: 069.4774 deg RA of node: 095.1538 deg Eccentricity: 0.0652893 Arg of perigee: 250.1811 deg Mean anomaly: 102.8108 deg Mean motion: 14.36254207 rev/day Decay rate: 3.5964e-04 rev/day^2 Epoch rev: 9771 Checksum: 319
Satellite: XATCOBEO Catalog number: 38082 Epoch time: 14002.86712609 Element set: 819 Inclination: 069.4671 deg RA of node: 039.1590 deg Eccentricity: 0.0439796 Arg of perigee: 219.9649 deg Mean anomaly: 197.3921 deg Mean motion: 14.91095662 rev/day Decay rate: 1.42417e-03 rev/day^2 Epoch rev: 9928 Checksum: 351
Satellite: CUBEBUG-1 Catalog number: 39153 Epoch time: 14002.82866876 Element set: 726 Inclination: 098.0574 deg RA of node: 083.4444 deg Eccentricity: 0.0018525 Arg of perigee: 158.7555 deg Mean anomaly: 201.4426 deg Mean motion: 14.76978132 rev/day Decay rate: 1.435e-05 rev/day^2 Epoch rev: 3714 Checksum: 316
Satellite: ESTCUBE-1 Catalog number: 39161 Epoch time: 14002.71851308 Element set: 699 Inclination: 098.1135 deg RA of node: 084.8036 deg Eccentricity: 0.0009748 Arg of perigee: 193.9767 deg Mean anomaly: 166.1169 deg Mean motion: 14.69417097 rev/day Decay rate: 1.132e-05 rev/day^2 Epoch rev: 3529 Checksum: 324
/EX SB KEPS @ AMSAT $ORB14002.W Orbital Elements 14002.WEATHER
HR AMSAT ORBITAL ELEMENTS FOR WEATHER SATELLITES FROM WA5QGD FORT WORTH,TX January 2, 2014 BID: ORB14002.W TO ALL RADIO AMATEURS BT
Satellite: NOAA-10 Catalog number: 16969 Epoch time: 14002.52620529 Element set: 624 Inclination: 098.5285 deg RA of node: 030.8363 deg Eccentricity: 0.0012344 Arg of perigee: 026.7957 deg Mean anomaly: 129.1164 deg Mean motion: 14.27700985 rev/day Decay rate: 1.10e-06 rev/day^2 Epoch rev: 42038 Checksum: 288
Satellite: NOAA-11 Catalog number: 19531 Epoch time: 14002.34523408 Element set: 648 Inclination: 098.6960 deg RA of node: 085.5498 deg Eccentricity: 0.0011888 Arg of perigee: 056.9923 deg Mean anomaly: 303.2392 deg Mean motion: 14.15048793 rev/day Decay rate: 1.00e-06 rev/day^2 Epoch rev: 30428 Checksum: 304
